Location: Nelson
(41.2830°S, 173.2830°E)
Time: 06:04:25
(UTC+12:00)

ISS - Pass Details

Date: 20 May 2025
Orbit: 415 x 417 km, 51.6° (Epoch: 16 June)

Event Time Altitude Azimuth Distance (km) Brightness Sun altitude
Exits shadow 05:50:55 52° 199° (SSW) 541 -3.5 -19.0°
Drops below altitude 10° 05:54:08 10° 133° (SE) 1,529 -0.4 -18.4°
Sets 05:56:18 0° 128° (SE) 2,401 0.7 -18.0°
